EW1732 Weather Reports


Display with metric or nautical units.
time (UTC)temp
F
wind
direction
speed
MPH
gust
MPH
rain 1hr
in
rain 24hr
in
rain mn
in
humidity
%
barometer
mb
20260906093552 61 68 0.0 0.0 0.00 0.00 0.00 91 1013.4
20260906091431 61 68 0.0 0.0 0.00 0.00 0.00 90 1013.2
20260906090430 61 68 0.0 0.0 0.00 0.00 0.00 90 1013.2
20260906085425 61 68 0.0 0.0 0.00 0.00 0.00 90 1013.3
20260906084425 61 68 0.0 0.0 0.00 0.00 0.00 90 1013.3
20260906083404 62 68 0.0 0.0 0.00 0.00 0.00 90 1013.0
20260906082340 62 68 0.0 0.0 0.00 0.00 0.00 91 1012.9
20260906081327 62 68 0.0 0.0 0.00 0.00 0.00 91 1013.0
20260906080333 62 68 0.0 0.0 0.00 0.00 0.00 92 1013.0
20260906075312 63 68 0.0 0.0 0.00 0.00 0.00 93 1012.7
20260906074320 63 68 0.0 0.0 0.00 0.00 0.00 93 1012.8
20260906073336 63 68 0.0 0.0 0.00 0.00 0.00 93 1012.8
20260906072307 63 68 0.0 0.0 0.00 0.00 0.00 93 1012.7
20260906070145 63 68 0.0 0.0 0.00 0.00 0.00 93 1012.8
20260906065139 63 69 0.0 0.0 0.00 0.00 0.00 93 1012.9
20260906064119 64 68 0.0 0.0 0.00 0.00 0.00 93 1012.8
20260906063132 64 79 0.0 0.0 0.00 0.00 0.00 93 1012.9
20260906061024 64 144 0.0 0.0 0.00 0.00 0.00 95 1013.0
20260906055951 64 217 0.0 0.0 0.00 0.00 0.00 95 1013.0
20260906055008 63 218 0.0 0.0 0.00 0.00 0.00 95 1013.1
20260906054014 63 218 0.0 0.0 0.00 0.00 0.00 95 1013.1
20260906053020 63 218 0.0 0.0 0.00 0.00 0.00 95 1013.0
20260906051959 63 218 0.0 0.0 0.00 0.00 0.00 95 1013.0
20260906051023 63 218 0.0 0.0 0.00 0.00 0.00 95 1012.9
20260906050044 63 218 0.0 0.0 0.00 0.00 0.00 95 1012.9
20260906045033 63 218 0.0 0.0 0.00 0.00 0.00 95 1013.0
20260906044044 63 217 0.0 0.0 0.00 0.00 0.00 95 1013.0
20260906041845 62 218 0.0 0.0 0.00 0.00 0.00 95 1012.9
20260906040905 62 217 0.0 0.0 0.00 0.00 0.00 94 1012.9
20260906035845 62 218 0.0 0.0 0.00 0.00 0.00 94 1013.0
20260906034853 62 218 0.0 0.0 0.00 0.00 0.00 93 1012.9
20260906033914 62 218 0.0 0.0 0.00 0.00 0.00 93 1012.8
20260906032922 63 218 0.0 0.0 0.00 0.00 0.00 92 1012.6
20260906031932 63 217 0.0 0.0 0.00 0.00 0.00 92 1012.6
20260906025824 63 218 0.0 0.0 0.00 0.00 0.00 91 1012.5
20260906024754 63 218 0.0 0.0 0.00 0.00 0.00 91 1012.7
20260906023814 63 218 0.0 0.0 0.00 0.00 0.00 91 1012.6
20260906022835 63 218 0.0 0.0 0.00 0.00 0.00 90 1012.5
20260906021841 64 218 0.0 0.0 0.00 0.00 0.00 88 1012.4
20260906020811 64 218 0.0 0.0 0.00 0.00 0.00 88 1012.4
20260906015831 65 218 0.0 0.0 0.00 0.00 0.00 87 1012.3
20260906012453 66 218 0.0 0.0 0.00 0.00 0.00 83 1012.0
20260906011434 67 229 0.0 0.0 0.00 0.00 0.00 83 1012.0
20260906010420 67 241 0.0 1.0 0.00 0.00 0.00 82 1012.0
20260906004336 68 233 0.0 0.0 0.00 0.00 0.00 81 1011.7
20260906003357 68 207 0.0 0.0 0.00 0.00 0.00 79 1011.7
20260906002410 68 221 0.0 0.0 0.00 0.00 0.00 79 1011.7
20260906000249 69 229 0.0 0.0 0.00 0.00 0.00 78 1011.5
20260905235248 69 229 0.0 0.0 0.00 0.00 0.00 78 1011.3
20260905234311 69 229 0.0 0.0 0.00 0.00 0.00 78 1011.3
20260905233245 70 223 0.0 0.0 0.00 0.00 0.00 77 1011.2
20260905232259 71 223 0.0 0.0 0.00 0.00 0.00 76 1011.0
20260905231302 72 223 0.0 0.0 0.00 0.00 0.00 74 1011.0
20260905230321 72 223 0.0 0.0 0.00 0.00 0.00 73 1011.1
20260905225326 73 223 0.0 0.0 0.00 0.00 0.00 73 1011.0
20260905224339 74 239 0.0 1.0 0.00 0.00 0.00 72 1010.8
20260905223354 74 137 0.0 4.0 0.00 0.00 0.00 69 1010.7
20260905222329 75 156 0.0 0.0 0.00 0.00 0.00 70 1010.6
20260905221333 75 198 0.0 0.0 0.00 0.00 0.00 71 1010.6
20260905220336 75 116 0.0 0.0 0.00 0.00 0.00 69 1010.5
20260905214233 76 86 0.0 0.0 0.00 0.00 0.00 66 1010.4
20260905212153 78 94 0.0 0.0 0.00 0.00 0.00 64 1010.3
20260905211141 77 167 0.0 0.0 0.00 0.00 0.00 65 1010.2
20260905210127 77 91 0.0 2.0 0.00 0.00 0.00 64 1010.0
20260905205111 76 217 0.0 0.0 0.00 0.00 0.00 64 1010.0
20260905204130 76 229 0.0 0.0 0.00 0.00 0.00 66 1009.9
20260905203139 76 231 0.0 5.0 0.00 0.00 0.00 65 1009.9
20260905202135 77 234 0.0 0.0 0.00 0.00 0.00 64 1009.9
20260905201149 77 221 0.0 5.0 0.00 0.00 0.00 63 1009.9
20260905200133 78 313 0.0 1.0 0.00 0.00 0.00 61 1009.9
20260905195112 79 155 0.0 6.0 0.00 0.00 0.00 61 1009.8
20260905194101 79 147 0.0 3.0 0.00 0.00 0.00 60 1009.9
20260905193033 79 147 0.0 0.0 0.00 0.00 0.00 59 1009.9
20260905192029 79 242 0.0 4.0 0.00 0.00 0.00 62 1009.9
20260905191036 79 208 0.0 4.0 0.00 0.00 0.00 60 1010.0
20260905190047 78 181 0.0 7.0 0.00 0.00 0.00 63 1010.1
20260905183906 78 298 0.0 0.0 0.00 0.00 0.00 65 1010.1
20260905174355 78 339 0.0 7.0 0.00 0.00 0.00 61 1010.3
20260905173415 77 244 0.0 0.0 0.00 0.00 0.00 64 1010.4
20260905171236 77 163 0.0 3.0 0.00 0.00 0.00 63 1010.5
20260905170209 76 120 0.0 5.0 0.00 0.00 0.00 65 1010.6
20260905164120 75 307 0.0 6.0 0.00 0.00 0.00 67 1010.6
20260905163052 74 178 0.0 1.0 0.00 0.00 0.00 70 1010.5
20260905162040 74 271 0.0 6.0 0.00 0.00 0.00 68 1010.6
20260905161101 73 230 0.0 7.0 0.00 0.00 0.00 71 1010.6
20260905160124 73 225 0.0 7.0 0.00 0.00 0.00 70 1010.6
20260905155133 73 208 1.0 7.0 0.00 0.00 0.00 70 1010.6
20260905154120 73 245 0.0 4.0 0.00 0.00 0.00 73 1010.6
20260905153102 73 168 0.0 5.0 0.00 0.00 0.00 72 1010.7
20260905152055 73 335 0.0 4.0 0.00 0.00 0.00 75 1010.7
20260905151104 72 120 0.0 2.0 0.00 0.00 0.00 77 1010.7
20260905150114 71 56 0.0 4.0 0.00 0.00 0.00 77 1010.7
20260905145054 71 210 0.0 6.0 0.00 0.00 0.00 78 1010.7
20260905144053 71 165 0.0 6.0 0.00 0.00 0.00 77 1010.7
20260905143107 70 237 1.0 6.0 0.00 0.00 0.00 79 1010.6
20260905142051 70 223 0.0 6.0 0.00 0.00 0.00 81 1010.5
20260905135846 69 224 0.0 9.0 0.00 0.00 0.00 82 1010.6
20260905134837 68 169 0.0 9.0 0.00 0.00 0.00 83 1010.6
20260905133854 68 229 0.0 5.0 0.00 0.00 0.00 85 1010.6
20260905132906 68 238 0.0 3.0 0.00 0.00 0.00 85 1010.7
20260905131928 67 219 0.0 5.0 0.00 0.00 0.00 85 1010.9
20260905130931 67 229 0.0 4.0 0.00 0.00 0.00 87 1010.8
20260905125908 66 236 0.0 0.0 0.00 0.00 0.00 87 1010.9
20260905123716 65 248 0.0 8.0 0.00 0.00 0.00 89 1010.9
20260905122718 64 255 0.0 3.0 0.00 0.00 0.00 90 1011.0
20260905120542 63 211 0.0 0.0 0.00 0.00 0.00 94 1010.9
20260905115548 62 221 0.0 0.0 0.00 0.00 0.00 96 1010.9
20260905114548 61 227 0.0 0.0 0.00 0.00 0.00 96 1010.8
20260905113527 60 210 0.0 0.0 0.00 0.01 0.00 96 1010.7
20260905111357 59 203 0.0 0.0 0.00 0.01 0.00 95 1010.4
20260905104152 60 203 0.0 0.0 0.00 0.01 0.00 94 1010.0
20260905103158 60 203 0.0 0.0 0.00 0.01 0.00 94 1010.1
20260905102214 60 203 0.0 0.0 0.00 0.01 0.00 94 1009.9
20260905101140 60 203 0.0 0.0 0.00 0.01 0.00 94 1009.8
20260905100106 61 203 0.0 0.0 0.00 0.01 0.00 93 1009.8
20260905094011 61 203 0.0 0.0 0.00 0.01 0.00 92 1009.7